Regional Weather Roundup
Issued by NWS

Home | Current Version | Previous Version | Text Only | Print | Product List | Glossary On
Versions: 1 2 3 4 5 6 7 8 9 10 11 12 13 14 15 16 17 18 19 20 21 22 23 24 25 26 27 28 29 30 31 32 33 34 35 36 37 38 39 40 41 42 43 44 45 46 47 48 49 50
819
ASUS45 KBOI 110610
RWRID

IDAHO REGIONAL WEATHER ROUNDUP
NATIONAL WEATHER SERVICE BOISE ID
1100 PM MST WED FEB 10 2016

NOTE: "FAIR" INDICATES FEW OR NO CLOUDS BELOW 12000 FEET
WITH NO SIGNIFICANT WEATHER AND/OR OBSTRUCTIONS TO VISIBILITY

IDZ012-014-110700-
SOUTHWEST IDAHO


CITY           SKY/WX    TMP DP  RH WIND       PRES   REMARKS
BOISE          PTCLDY    31  29  92 SW3       30.42S FOG
CALDWELL       PTCLDY    30  28  92 CALM      30.44S
MOUNTAIN HOME  MIX PCPN  29  29  99 SE6       30.43R VSB<1/4 WCI  23
$$

IDZ016-017-110700-
SOUTHCENTRAL IDAHO


CITY           SKY/WX    TMP DP  RH WIND       PRES   REMARKS
JEROME         CLEAR     28  24  85 E10       30.40S WCI  19
TWIN FALLS     PTCLDY    31  29  92 S6        30.40R WCI  25
$$

IDZ019>023-110700-
SOUTHEAST IDAHO


CITY           SKY/WX    TMP DP  RH WIND       PRES   REMARKS
IDAHO FALLS    CLOUDY    16  12  84 CALM      30.40S
POCATELLO      CLOUDY    21  19  92 CALM      30.41S
REXBURG        CLOUDY    21  17  84 N5        30.39R WCI  15
$$

IDZ006-010-011-018-031-032-110700-
CENTRAL IDAHO MOUNTAINS


CITY           SKY/WX    TMP DP  RH WIND       PRES   REMARKS
MCCALL         CLOUDY    30  27  88 CALM      30.34F
HAILEY         CLEAR     23  19  86 CALM      30.40R
STANLEY          N/A     22  15  75 S3        30.37S
SALMON         CLOUDY    18  16  93 CALM      30.40R
CHALLIS        PTCLDY    15  12  88 CALM      30.35S
$$

IDZ002-004-006-007-026-110700-
NORTHERN IDAHO


CITY           SKY/WX    TMP DP  RH WIND       PRES   REMARKS
LEWISTON       CLOUDY    49  34  56 S6        30.29S
LOWELL           N/A     39  36  89 N3        30.35R
COEUR D`ALENE  CLOUDY    36  34  93 S7        30.26R WCI  30
MULLAN PASS    CLOUDY    34  30  85 VRB7      30.23S WCI  28
$$




USA.gov is the U.S. government's official web portal to all federal, state and local government web resources and services.